• In Uzbekistan
  • List of Countries
  • For 7 days
  • Water Temperature
  • Weather Map
  • Weather Widgets
  • user-avatar
    Login

    Hourly Weather Canberra

    Today, 18 October, Friday

    Time Temperature Precipitation Wind Pressure Humidity
    00:00 +4°C° 0 mm 3 mps 707 mmHg 78%
    01:00 +4°C° 0 mm 3 mps 707 mmHg 82%
    02:00 +3°C° 0 mm 3 mps 707 mmHg 86%
    03:00 +3°C° 0 mm 2 mps 707 mmHg 90%
    04:00 +3°C° 0 mm 2 mps 707 mmHg 96%
    05:00 +5°C° 0 mm 2 mps 708 mmHg 91%
    06:00 +6°C° 0 mm 2 mps 709 mmHg 86%
    07:00 +7°C° 0 mm 2 mps 709 mmHg 81%
    08:00 +10°C° 0 mm 3 mps 709 mmHg 68%
    09:00 +12°C° 0 mm 4 mps 709 mmHg 56%
    10:00 +15°C° 0 mm 4 mps 710 mmHg 41%
    11:00 +16°C° 0 mm 5 mps 709 mmHg 39%
    12:00 +17°C° 0 mm 5 mps 709 mmHg 36%
    13:00 +19°C° 0 mm 6 mps 708 mmHg 34%
    14:00 +19°C° 0 mm 6 mps 708 mmHg 35%
    15:00 +17°C° 0 mm 6 mps 707 mmHg 37%
    16:00 +16°C° 0 mm 6 mps 707 mmHg 39%
    17:00 +14°C° 0 mm 4 mps 707 mmHg 45%
    18:00 +12°C° 0 mm 3 mps 707 mmHg 52%
    19:00 +10°C° 0 mm 2 mps 707 mmHg 59%
    20:00 +9°C° 0 mm 2 mps 707 mmHg 61%
    21:00 +8°C° 0 mm 2 mps 707 mmHg 63%
    22:00 +7°C° 0 mm 2 mps 707 mmHg 65%
    23:00 +6°C° 0 mm 2 mps 707 mmHg 63%

    Tomorrow, 19 October, Saturday

    Time Temperature Precipitation Wind Pressure Humidity
    00:00 +6°C° 0 mm 2 mps 706 mmHg 61%
    01:00 +6°C° 0 mm 2 mps 706 mmHg 59%
    02:00 +6°C° 0 mm 2 mps 706 mmHg 58%
    03:00 +5°C° 0 mm 3 mps 706 mmHg 58%
    04:00 +5°C° 0 mm 3 mps 706 mmHg 57%
    05:00 +7°C° 0 mm 4 mps 706 mmHg 59%
    06:00 +8°C° 0 mm 5 mps 707 mmHg 60%
    07:00 +10°C° 0 mm 6 mps 707 mmHg 62%
    08:00 +11°C° 0 mm 7 mps 707 mmHg 57%
    09:00 +13°C° 0 mm 8 mps 707 mmHg 52%
    10:00 +15°C° 0 mm 9 mps 707 mmHg 48%
    11:00 +15°C° 0 mm 9 mps 707 mmHg 47%
    12:00 +15°C° 0 mm 9 mps 707 mmHg 46%
    13:00 +13°C° 0 mm 8 mps 707 mmHg 46%
    14:00 +13°C° 0 mm 8 mps 707 mmHg 46%
    15:00 +12°C° 0 mm 7 mps 707 mmHg 45%
    16:00 +11°C° 0 mm 7 mps 707 mmHg 45%
    17:00 +9°C° 0 mm 5 mps 708 mmHg 54%
    18:00 +7°C° 0 mm 4 mps 709 mmHg 62%
    19:00 +5°C° 0 mm 3 mps 709 mmHg 71%
    20:00 +5°C° 0 mm 2 mps 710 mmHg 77%
    21:00 +4°C° 0 mm 2 mps 710 mmHg 83%
    22:00 +4°C° 0 mm 2 mps 710 mmHg 88%
    23:00 +4°C° 0 mm 1 mps 710 mmHg 90%

    Day after tomorrow, 20 October, Sunday

    Time Temperature Precipitation Wind Pressure Humidity
    00:00 +3°C° 0 mm 1 mps 710 mmHg 91%
    01:00 +2°C° 0 mm 0 mps 710 mmHg 92%
    02:00 +1°C° 0 mm 0 mps 710 mmHg 93%
    03:00 +1°C° 0 mm 0 mps 710 mmHg 93%
    04:00 +1°C° 0 mm 0 mps 710 mmHg 93%
    05:00 +2°C° 0 mm 0 mps 711 mmHg 87%
    06:00 +4°C° 0 mm 0 mps 712 mmHg 80%
    07:00 +6°C° 0 mm 0 mps 712 mmHg 74%
    08:00 +10°C° 0 mm 1 mps 712 mmHg 63%
    09:00 +12°C° 0 mm 1 mps 713 mmHg 51%
    10:00 +15°C° 0 mm 2 mps 713 mmHg 40%
    11:00 +16°C° 0 mm 2 mps 713 mmHg 38%
    12:00 +17°C° 0 mm 2 mps 712 mmHg 37%
    13:00 +19°C° 0 mm 2 mps 712 mmHg 35%
    14:00 +18°C° 0 mm 3 mps 712 mmHg 38%
    15:00 +18°C° 0 mm 3 mps 712 mmHg 42%
    16:00 +18°C° 0 mm 3 mps 712 mmHg 46%
    17:00 +14°C° 0 mm 3 mps 712 mmHg 58%
    18:00 +13°C° 0 mm 2 mps 713 mmHg 70%
    19:00 +10°C° 0 mm 1 mps 713 mmHg 82%
    20:00 +8°C° 0 mm 2 mps 714 mmHg 85%
    21:00 +7°C° 0 mm 2 mps 714 mmHg 88%
    22:00 +6°C° 0 mm 2 mps 714 mmHg 91%
    23:00 +7°C° 0 mm 1 mps 714 mmHg 91%

    21 October, Monday

    Time Temperature Precipitation Wind Pressure Humidity
    00:00 +6°C° 0 mm 1 mps 714 mmHg 92%
    01:00 +6°C° 0 mm 1 mps 714 mmHg 92%
    02:00 +6°C° 0 mm 1 mps 714 mmHg 92%
    03:00 +5°C° 0 mm 1 mps 714 mmHg 92%
    04:00 +5°C° 0 mm 1 mps 714 mmHg 92%
    05:00 +6°C° 0 mm 0 mps 714 mmHg 85%
    06:00 +8°C° 0 mm 0 mps 715 mmHg 78%
    07:00 +10°C° 0 mm 0 mps 715 mmHg 71%
    08:00 +13°C° 0 mm 1 mps 716 mmHg 63%
    09:00 +16°C° 0 mm 1 mps 716 mmHg 54%
    10:00 +20°C° 0 mm 1 mps 716 mmHg 45%
    11:00 +21°C° 0 mm 1 mps 716 mmHg 43%
    12:00 +21°C° 0 mm 2 mps 716 mmHg 41%
    13:00 +23°C° 0 mm 2 mps 715 mmHg 39%
    14:00 +23°C° 0 mm 2 mps 715 mmHg 41%
    15:00 +21°C° 0 mm 3 mps 715 mmHg 44%
    16:00 +21°C° 0 mm 3 mps 714 mmHg 47%
    17:00 +18°C° 0 mm 2 mps 715 mmHg 59%
    18:00 +16°C° 0 mm 2 mps 715 mmHg 71%
    19:00 +13°C° 0 mm 1 mps 715 mmHg 83%
    20:00 +12°C° 0 mm 1 mps 715 mmHg 87%
    21:00 +11°C° 0 mm 1 mps 715 mmHg 91%
    22:00 +9°C° 0 mm 1 mps 715 mmHg 96%
    23:00 +9°C° 0 mm 1 mps 715 mmHg 96%

    22 October, Tuesday

    Time Temperature Precipitation Wind Pressure Humidity
    00:00 +9°C° 0 mm 1 mps 715 mmHg 96%
    01:00 +8°C° 0 mm 1 mps 715 mmHg 96%
    02:00 +8°C° 0 mm 1 mps 714 mmHg 96%
    03:00 +7°C° 0 mm 0 mps 714 mmHg 95%
    04:00 +7°C° 0 mm 0 mps 714 mmHg 95%
    05:00 +9°C° 0 mm 0 mps 715 mmHg 90%
    06:00 +10°C° 0 mm 0 mps 715 mmHg 85%
    07:00 +12°C° 0 mm 0 mps 715 mmHg 81%
    08:00 +16°C° 0 mm 1 mps 715 mmHg 70%
    09:00 +20°C° 0 mm 1 mps 716 mmHg 59%
    10:00 +21°C° 0 mm 2 mps 716 mmHg 48%
    11:00 +23°C° 0 mm 2 mps 716 mmHg 45%
    12:00 +24°C° 0 mm 3 mps 715 mmHg 42%
    13:00 +25°C° 0 mm 3 mps 715 mmHg 39%
    14:00 +25°C° 0 mm 3 mps 715 mmHg 42%
    15:00 +24°C° 0 mm 3 mps 714 mmHg 44%
    16:00 +24°C° 0 mm 3 mps 714 mmHg 47%
    17:00 +20°C° 0.1 mm 3 mps 714 mmHg 58%
    18:00 +17°C° 0.1 mm 2 mps 714 mmHg 70%
    19:00 +15°C° 0.1 mm 1 mps 714 mmHg 81%
    20:00 +14°C° 0 mm 1 mps 714 mmHg 85%
    21:00 +13°C° 0 mm 1 mps 715 mmHg 89%
    22:00 +12°C° 0 mm 1 mps 715 mmHg 93%
    23:00 +11°C° 0 mm 1 mps 714 mmHg 94%

    23 October, Wednesday

    Time Temperature Precipitation Wind Pressure Humidity
    00:00 +11°C° 0 mm 1 mps 714 mmHg 94%
    01:00 +10°C° 0 mm 1 mps 714 mmHg 94%
    02:00 +10°C° 0 mm 1 mps 714 mmHg 94%
    03:00 +10°C° 0 mm 1 mps 713 mmHg 94%
    04:00 +9°C° 0 mm 1 mps 713 mmHg 94%
    05:00 +10°C° 0 mm 0 mps 713 mmHg 90%
    06:00 +12°C° 0 mm 0 mps 714 mmHg 86%
    07:00 +13°C° 0 mm 0 mps 714 mmHg 82%
    08:00 +18°C° 0 mm 1 mps 714 mmHg 69%
    09:00 +20°C° 0 mm 2 mps 714 mmHg 55%
    10:00 +24°C° 0 mm 3 mps 714 mmHg 42%
    11:00 +25°C° 0 mm 3 mps 714 mmHg 39%
    12:00 +26°C° 0 mm 4 mps 714 mmHg 36%
    13:00 +27°C° 0 mm 4 mps 713 mmHg 33%
    14:00 +26°C° 0 mm 4 mps 713 mmHg 34%
    15:00 +26°C° 0 mm 4 mps 712 mmHg 34%
    16:00 +26°C° 0 mm 4 mps 712 mmHg 35%
    17:00 +22°C° 0 mm 3 mps 712 mmHg 41%
    18:00 +19°C° 0 mm 2 mps 711 mmHg 48%
    19:00 +18°C° 0 mm 1 mps 711 mmHg 54%
    20:00 +16°C° 0 mm 1 mps 711 mmHg 57%
    21:00 +15°C° 0 mm 1 mps 711 mmHg 59%
    22:00 +13°C° 0 mm 0 mps 712 mmHg 61%
    23:00 +12°C° 0 mm 0 mps 711 mmHg 62%
    Show more